Regional Weather Roundup
Issued by NWS

Home | Current Version | Previous Version | Graphics & Text | Print | Product List | Glossary On
Versions: 1 2 3 4 5 6 7 8 9 10 11 12 13 14 15 16 17 18 19 20 21 22 23 24 25 26 27 28 29 30 31 32 33 34 35 36 37 38 39 40 41 42 43 44 45 46 47 48 49 50
000
ASUS43 KMKX 061210
RWRWI

WISCONSIN REGIONAL WEATHER ROUNDUP
NATIONAL WEATHER SERVICE MILWAUKEE/SULLIVAN WI
600 AM CST FRI MAR 06 2015

NOTE: "FAIR" INDICATES FEW OR NO CLOUDS BELOW 12,000 FEET WITH NO
SIGNIFICANT WEATHER AND/OR OBSTRUCTIONS TO VISIBILITY.

WIZ001-002-006>008-014>016-023>028-061300-
NORTHWEST WISCONSIN

CITY           SKY/WX    TMP DP  RH WIND       PRES   REMARKS
SUPERIOR ARPT  CLOUDY    12   3  68 SW12      30.01F WCI  -2
6HR MIN TEMP:   7; 6HR MAX TEMP:  12;

ASHLAND        CLOUDY    10  -1  61 SW16G25   30.03F WCI  -7
6HR MIN TEMP:   5; 6HR MAX TEMP:  10;

HAYWARD        CLOUDY    10   0  63 S12       30.05F WCI  -5
6HR MIN TEMP:   2; 6HR MAX TEMP:  10;

SIREN          CLOUDY    15   3  59 S9        30.06F WCI   3
6HR MIN TEMP:   4; 6HR MAX TEMP:  15;

CUMBERLAND     MOCLDY     3  -4  72 S7        30.08F WCI  -9
RICE LAKE      PTCLDY     4  -3  74 SE5       30.12F WCI  -5
6HR MIN TEMP:  -1; 6HR MAX TEMP:   6;

CHETEK         CLEAR      2  -3  79 SE5       30.12F WCI  -8
6HR MIN TEMP:  -3; 6HR MAX TEMP:   6;

LADYSMITH      CLOUDY     5  -1  76 S6        30.12F WCI  -6
6HR MIN TEMP:  -1; 6HR MAX TEMP:   5;

EAU CLAIRE     PTCLDY     6  -3  66 S7        30.15F WCI  -6
6HR MIN TEMP:   2; 6HR MAX TEMP:   7;

MENOMONIE      CLEAR     10   0  61 S9        30.15F WCI  -2
6HR MIN TEMP:   0; 6HR MAX TEMP:  11;

NEW RICHMOND   CLEAR     10   1  66 S8        30.11S WCI  -2
6HR MIN TEMP:   5; 6HR MAX TEMP:  11;

OSCEOLA        PTCLDY    11   2  66 S8        30.12F WCI   0
6HR MIN TEMP:   4; 6HR MAX TEMP:  12;

$$

WIZ003>005-009-010-017-018-061300-
NORTH CENTRAL WISCONSIN

CITY           SKY/WX    TMP DP  RH WIND       PRES   REMARKS
MANITOWISH WTR MOCLDY    -3  -7  82 S7        30.04F WCI -16
6HR MIN TEMP:  -3; 6HR MAX TEMP:   0;

ARBOR VITAE    MOCLDY     0  -6  78 S9        30.06F WCI -16
6HR MIN TEMP:  -4; 6HR MAX TEMP:   1;

WOODRUFF       MOCLDY     0  -6  78 S9        30.06F WCI -16
6HR MIN TEMP:  -4; 6HR MAX TEMP:   1;

RHINELANDER    PTCLDY     1  -5  75 SW10      30.09F WCI -15
6HR MIN TEMP:  -2; 6HR MAX TEMP:   1;

EAGLE RIVER    PTCLDY    -1  -6  76 CALM      30.07F
6HR MIN TEMP:  -3; 6HR MAX TEMP:   0;

LAND O LAKES   PTCLDY    -1  -6  82 SW6       30.06F WCI -13
6HR MIN TEMP:  -3; 6HR MAX TEMP:   0;

PHILLIPS       CLOUDY     1  -4  77 S9        30.07F WCI -14
6HR MIN TEMP:  -3; 6HR MAX TEMP:   1;

TOMAHAWK       CLOUDY    -1  -6  82 CALM      30.12F
6HR MIN TEMP:  -7; 6HR MAX TEMP:  -1;

MEDFORD        CLOUDY     4  -4  71 S12       30.12F WCI -12
6HR MIN TEMP:  -4; 6HR MAX TEMP:   4;

MERRILL        MOCLDY    -7 -12  78 CALM      30.15F
6HR MIN TEMP: -15; 6HR MAX TEMP:  -1;

$$

WIZ029-030-035-036-043>047-061300-
CENTRAL WISCONSIN

CITY           SKY/WX    TMP DP  RH WIND       PRES   REMARKS
WAUSAU         PTCLDY    -2  -7  79 CALM      30.17F
6HR MIN TEMP:  -3; 6HR MAX TEMP:   2;

MOSINEE        CLEAR     -4  -8  84 S9        30.20F WCI -20
MARSHFIELD     CLOUDY    -1  -7  75 S9        30.17F WCI -16
6HR MIN TEMP:  -6; 6HR MAX TEMP:   1;

STEVENS POINT  MOCLDY    -1  -7  78 S9        30.22F WCI -17
6HR MIN TEMP:  -4; 6HR MAX TEMP:   2;

WAUPACA        PTCLDY     1  -6  72 S5        30.28F WCI  -8
6HR MIN TEMP:   0; 6HR MAX TEMP:   6;

WAUTOMA        PTCLDY    -9 -14  78 CALM      30.29F
6HR MIN TEMP: -10; 6HR MAX TEMP:   1;

WISC RAPIDS    MOCLDY    -1  -8  72 S7        30.24F WCI -14
6HR MIN TEMP:  -5; 6HR MAX TEMP:   3;

CAMP DOUGLAS   CLOUDY     6  -1  72 SE6       30.24F WCI  -4
6HR MIN TEMP:  -4; 6HR MAX TEMP:   6;

$$

WIZ011>013-019>022-031-037>040-048>050-061300-
NORTHEAST WISCONSIN

CITY           SKY/WX    TMP DP  RH WIND       PRES   REMARKS
ANTIGO         MOCLDY    -4  -8  84 SW7       30.15F WCI -18
6HR MIN TEMP:  -8; 6HR MAX TEMP:  -2;

SHAWANO        MOCLDY     1  -6  71 CALM      30.26F
6HR MIN TEMP:   1; 6HR MAX TEMP:   5;

OCONTO         PTCLDY     1  -6  71 SW5       30.28F WCI  -8
6HR MIN TEMP:  -6; 6HR MAX TEMP:   1;

STURGEON BAY   PTCLDY     1  -8  66 SW12      30.28F WCI -15
6HR MIN TEMP:   1; 6HR MAX TEMP:   7;

GREEN BAY      PTCLDY     1  -6  72 S9        30.30F WCI -14
6HR MIN TEMP:   1; 6HR MAX TEMP:   5;

MANITOWOC      PTCLDY     3  -4  72 SW5       30.33F WCI  -6
6HR MIN TEMP:   2; 6HR MAX TEMP:   4;

APPLETON       MOCLDY     1  -8  66 S9        30.29F WCI -14
CLINTONVILLE   PTCLDY     1  -6  71 S7        30.27F WCI -11
OSHKOSH        PTCLDY     2  -6  69 S10       30.30F WCI -14
6HR MIN TEMP:   0; 6HR MAX TEMP:   6;

$$

WIZ032>034-041-042-053>061-061300-
SOUTHWEST WISCONSIN

CITY           SKY/WX    TMP DP  RH WIND       PRES   REMARKS
LA CROSSE      MOCLDY     7  -2  66 S13       30.24F WCI  -9
6HR MIN TEMP:   4; 6HR MAX TEMP:   8;

SPARTA         CLOUDY     7  -2  66 CALM      30.25F
6HR MIN TEMP:  -5; 6HR MAX TEMP:   7;

VIROQUA        CLOUDY     5  -2  75 S12       30.22S WCI -11
6HR MIN TEMP:  -1; 6HR MAX TEMP:   5;

BOSCOBEL       CLOUDY    -9 -15  75 CALM      30.32F
6HR MIN TEMP: -11; 6HR MAX TEMP:  -3;

PRAIRIE DU CHI CLOUDY     6  -3  67 E7        30.30F WCI  -6
6HR MIN TEMP:  -4; 6HR MAX TEMP:   6;

PLATTEVILLE    CLOUDY     3  -3  76 SE9       30.31F WCI -12
6HR MIN TEMP:  -3; 6HR MAX TEMP:   3;

$$

WIZ056-057-062-063-064-067-068-061300-
SOUTH CENTRAL WISCONSIN

CITY           SKY/WX    TMP DP  RH WIND       PRES   REMARKS
REEDSBURG      CLEAR      3  -4  72 S8        30.28F WCI -10
6HR MIN TEMP:   1; 6HR MAX TEMP:   4;

BARABOO/DELLS  CLEAR      3  -5  70 CALM      30.27F
6HR MIN TEMP:  -1; 6HR MAX TEMP:   4;

LONE ROCK      PTCLDY     0  -7  72 CALM      30.33F
6HR MIN TEMP:  -8; 6HR MAX TEMP:   2;

MINERAL POINT  PTCLDY     1  -6  71 S8        30.29F WCI -12
MADISON        PTCLDY     2  -5  72 S7        30.35F WCI -11
6HR MIN TEMP:   1; 6HR MAX TEMP:   5;

MIDDLETON      CLEAR      4  -5  68 SW7       30.33F WCI  -9
6HR MIN TEMP:   2; 6HR MAX TEMP:   5;

WATERTOWN      PTCLDY    -2  -7  81 S5        30.35F WCI -13
6HR MIN TEMP:  -3; 6HR MAX TEMP:   2;

MONROE         PTCLDY     1  -4  78 S14       30.32F WCI -17
JANESVILLE     CLEAR      1  -6  71 S6        30.38F WCI -10
$$

WIZ051-052-058>065-066-070>072-061300-
SOUTHEAST WISCONSIN

CITY           SKY/WX    TMP DP  RH WIND       PRES   REMARKS
MILWAUKEE      PTCLDY     0  -8  69 SW8       30.38F WCI -14
6HR MIN TEMP:   0; 6HR MAX TEMP:   5;

WAUKESHA       PTCLDY    -2  -8  78 S5        30.37F WCI -12
MILWAUKEE/TIMM PTCLDY     3  -6  66 SW7       30.38F WCI  -9
RACINE         PTCLDY     1  -7  68 SW8       30.40F WCI -13
6HR MIN TEMP:  -3; 6HR MAX TEMP:   4;

BURLINGTON     PTCLDY   -12 -16  82 SW5       30.38F WCI -24
6HR MIN TEMP: -16; 6HR MAX TEMP:  -6;

KENOSHA        FAIR       1  -6  72 SW8       30.39F WCI -13
6HR MIN TEMP:  -2; 6HR MAX TEMP:   3;

FOND DU LAC    PTCLDY     4  -5  66 SW13      30.32F WCI -13
6HR MIN TEMP:   3; 6HR MAX TEMP:   5;

SHEBOYGAN      PTCLDY    -1  -9  68 SW9       30.33F WCI -16
6HR MIN TEMP:  -2; 6HR MAX TEMP:   2;

WEST BEND      PTCLDY     3  -4  72 SW3       30.34F
JUNEAU         PTCLDY     0  -6  75 S10       30.35S WCI -16
6HR MIN TEMP:  -1; 6HR MAX TEMP:   1;

$$

LSZ147-162-061300-
LAKE SUPERIOR

STATION/POSITION TIME  TEMP    WIND        PRES    WAVE
                       AIR SEA DIR/SP/G            HT/PER
                 (UTC) (F)     (DEG/KT/KT) (MB)    (FT/S)
DEVILS ISLAND    1200   14     230/ 17/ 20 1017.1F
PORT WING        1140   13     200/ 10/ 15 1016.9F
SAXON HARBOR     1100   12     190/ 11/ 22 1016.9F
$$

LMZ867-665-643>646-061300-
LAKE MICHIGAN

STATION/POSITION TIME  TEMP    WIND        PRES    WAVE



USA.gov is the U.S. government's official web portal to all federal, state and local government web resources and services.